Time,TemperatureF,DewpointF,PressureIn,WindDirection,WindDirectionDegrees,WindSpeedMPH,WindSpeedGustMPH,Humidity,HourlyPrecipIn,Conditions,Clouds,dailyrainin,SoftwareType,DateUTC
2013-05-19 00:29:00,43.2,38.4,30.23,NE,47,0.0,0.0,83,0.00,,---,0.00,VWS V14.00,2013-05-19 04:29:00,
2013-05-19 00:59:00,42.8,38.3,30.23,NE,47,0.0,0.0,84,0.00,,---,0.00,VWS V14.00,2013-05-19 04:59:00,
2013-05-19 01:29:00,42.2,38.0,30.23,NE,47,0.0,0.0,85,0.00,,---,0.00,VWS V14.00,2013-05-19 05:29:00,
2013-05-19 01:59:00,42.0,38.4,30.23,NE,47,0.0,0.0,87,0.00,,---,0.00,VWS V14.00,2013-05-19 05:59:00,
2013-05-19 02:29:00,41.0,37.4,30.23,NE,47,0.0,2.0,87,0.00,,---,0.00,VWS V14.00,2013-05-19 06:29:00,
2013-05-19 02:59:00,40.0,37.3,30.23,NE,47,0.0,0.0,90,0.00,,---,0.00,VWS V14.00,2013-05-19 06:59:00,
2013-05-19 03:29:00,39.5,37.1,30.24,NE,47,0.0,0.0,91,0.00,,---,0.00,VWS V14.00,2013-05-19 07:29:00,
2013-05-19 03:59:00,39.1,37.2,30.24,NE,47,0.0,0.0,93,0.00,,---,0.00,VWS V14.00,2013-05-19 07:59:00,
2013-05-19 04:29:00,38.9,36.8,30.24,NE,47,0.0,0.0,92,0.00,,---,0.00,VWS V14.00,2013-05-19 08:29:00,
2013-05-19 04:59:00,38.5,36.9,30.24,NE,47,0.0,0.0,94,0.00,,---,0.00,VWS V14.00,2013-05-19 08:59:00,
2013-05-19 05:29:00,38.2,36.6,30.24,NE,47,0.0,0.0,94,0.00,,---,0.00,VWS V14.00,2013-05-19 09:29:00,
2013-05-19 05:59:00,38.4,36.8,30.25,NE,47,0.0,1.0,94,0.00,,---,0.00,VWS V14.00,2013-05-19 09:59:00,
2013-05-19 06:29:00,39.5,38.5,30.25,NE,43,0.0,0.0,96,0.00,,---,0.00,VWS V14.00,2013-05-19 10:29:00,
2013-05-19 06:59:00,42.8,40.6,30.25,NE,42,1.0,2.0,92,0.00,,---,0.00,VWS V14.00,2013-05-19 10:59:00,
2013-05-19 07:29:00,46.1,41.8,30.25,NE,42,0.0,0.0,85,0.00,,---,0.00,VWS V14.00,2013-05-19 11:29:00,
2013-05-19 07:59:00,48.1,42.5,30.25,NE,42,1.0,2.0,81,0.00,,---,0.00,VWS V14.00,2013-05-19 11:59:00,
2013-05-19 08:29:00,51.0,43.0,30.25,East,90,1.0,2.0,74,0.00,,---,0.00,VWS V14.00,2013-05-19 12:29:00,
2013-05-19 08:59:00,53.5,43.6,30.25,SSE,165,3.0,3.0,69,0.00,,---,0.00,VWS V14.00,2013-05-19 12:59:00,
2013-05-19 09:29:00,55.7,43.7,30.24,ESE,123,2.0,2.0,64,0.00,,---,0.00,VWS V14.00,2013-05-19 13:29:00,
2013-05-19 09:59:00,56.3,43.9,30.24,East,90,2.0,3.0,63,0.00,,---,0.00,VWS V14.00,2013-05-19 13:59:00,
2013-05-19 10:29:00,57.9,44.5,30.23,East,90,2.0,2.0,61,0.00,,---,0.00,VWS V14.00,2013-05-19 14:29:00,
2013-05-19 10:59:00,58.4,44.6,30.23,NNE,25,1.0,5.0,60,0.00,,---,0.00,VWS V14.00,2013-05-19 14:59:00,
2013-05-19 11:29:00,59.8,45.5,30.22,NE,53,4.0,7.0,59,0.00,,---,0.00,VWS V14.00,2013-05-19 15:29:00,
2013-05-19 11:59:00,61.4,46.5,30.22,NE,55,5.0,8.0,58,0.00,,---,0.00,VWS V14.00,2013-05-19 15:59:00,
2013-05-19 12:29:00,63.6,46.2,30.20,SSW,197,4.0,7.0,53,0.00,,---,0.00,VWS V14.00,2013-05-19 16:29:00,
2013-05-19 12:59:00,63.6,47.6,30.19,ENE,69,1.0,4.0,56,0.00,,---,0.00,VWS V14.00,2013-05-19 16:59:00,
2013-05-19 13:29:00,62.9,47.9,30.18,ENE,71,5.0,7.0,58,0.00,,---,0.00,VWS V14.00,2013-05-19 17:29:00,
2013-05-19 13:59:00,62.8,48.7,30.18,SSE,155,1.0,4.0,60,0.00,,---,0.00,VWS V14.00,2013-05-19 17:59:00,
2013-05-19 14:29:00,63.3,49.2,30.16,SSE,162,7.0,10.0,60,0.00,,---,0.00,VWS V14.00,2013-05-19 18:29:00,
2013-05-19 14:59:00,63.0,48.9,30.15,ENE,69,4.0,4.0,60,0.00,,---,0.00,VWS V14.00,2013-05-19 18:59:00,
2013-05-19 15:29:00,62.3,49.1,30.14,SSE,165,3.0,7.0,62,0.00,,---,0.00,VWS V14.00,2013-05-19 19:29:00,
2013-05-19 15:59:00,62.2,49.5,30.13,SSE,163,1.0,3.0,63,0.00,,---,0.00,VWS V14.00,2013-05-19 19:59:00,
2013-05-19 16:29:00,61.7,50.6,30.15,SSE,151,2.0,6.0,67,0.00,,---,0.00,VWS V14.00,2013-05-19 20:29:00,
2013-05-19 16:59:00,58.8,53.3,30.14,SSE,157,0.0,0.0,82,0.01,,---,0.01,VWS V14.00,2013-05-19 20:59:00,
2013-05-19 17:29:00,57.5,54.6,30.12,NE,42,1.0,2.0,90,0.02,,---,0.02,VWS V14.00,2013-05-19 21:29:00,
2013-05-19 17:59:00,57.1,54.8,30.10,ENE,59,3.0,4.0,92,0.02,,---,0.02,VWS V14.00,2013-05-19 21:59:00,
2013-05-19 18:29:00,55.9,53.9,30.10,NE,51,1.0,1.0,93,0.03,,---,0.04,VWS V14.00,2013-05-19 22:29:00,
2013-05-19 18:59:00,55.6,53.9,30.09,East,92,0.0,0.0,94,0.02,,---,0.04,VWS V14.00,2013-05-19 22:59:00,
2013-05-19 19:29:00,55.4,53.7,30.08,SSW,202,0.0,1.0,94,0.02,,---,0.04,VWS V14.00,2013-05-19 23:29:00,
2013-05-19 19:59:00,55.5,53.8,30.08,ESE,111,2.0,4.0,94,0.01,,---,0.05,VWS V14.00,2013-05-19 23:59:00,
2013-05-19 20:29:00,55.4,54.3,30.07,South,181,0.0,3.0,96,0.03,,---,0.07,VWS V14.00,2013-05-20 00:29:00,
2013-05-19 20:59:00,55.3,54.2,30.06,ESE,122,7.0,7.0,96,0.06,,---,0.10,VWS V14.00,2013-05-20 00:59:00,
2013-05-19 21:29:00,55.1,54.3,30.05,SSW,194,1.0,3.0,97,0.07,,---,0.12,VWS V14.00,2013-05-20 01:29:00,
2013-05-19 21:59:00,55.0,54.2,30.04,SW,232,3.0,5.0,97,0.05,,---,0.12,VWS V14.00,2013-05-20 01:59:00,
2013-05-19 22:29:00,54.7,53.9,30.03,SSW,212,6.0,6.0,97,0.02,,---,0.13,VWS V14.00,2013-05-20 02:29:00,
2013-05-19 22:59:00,54.6,53.8,30.02,South,172,1.0,2.0,97,0.01,,---,0.13,VWS V14.00,2013-05-20 02:59:00,
2013-05-19 23:29:00,54.7,53.9,30.00,SW,225,0.0,2.0,97,0.01,,---,0.13,VWS V14.00,2013-05-20 03:29:00,
2013-05-19 23:59:00,54.7,54.2,29.99,South,186,0.0,0.0,98,0.03,,---,0.00,VWS V14.00,2013-05-20 03:59:00,